Tracking 34717 objects as of 14-Jul-2026
HD Live streaming from Space Station
objects crossing your sky now

CZ-4 DEB

Track CZ-4 DEB now!
10-day predictions


NORAD ID: 23258
Int'l Code: 1990-081CP
Perigee: 816.0 km
Apogee: 846.5 km
Inclination: 98.7 °
Period: 101.4 minutes
Semi major axis: 7202 km
RCS: 0.0136 m2 (small)
Launch date: September 3, 1990
Source: People's Republic of China (PRC)
Launch site: Taiyaun Space Center, China (TSC)

Note: This is SATELLITE DEBRIS
Your satellite tracking list
Your tracking list is empty




NASA's NSSDC Master Catalog

Two Line Element Set (TLE):
1 23258U 90081CP  26194.40562263  .00000251  00000-0  13719-3 0  9990
2 23258  98.7045 182.0347 0021199 336.2916  23.7282 14.20358617763357
Source of the keplerian elements: AFSPC